DG2MCM-11 Weather Reports


Display with metric or nautical units.
time (UTC)temp
F
wind
direction
speed
MPH
gust
MPH
rain 1hr
in
rain 24hr
in
rain mn
in
humidity
%
barometer
mb
20260506225754 48 0 0.0 0.0 0.00 0.00 0.00 80 1012.5
20260506223750 48 0 0.0 0.0 0.00 0.00 0.00 79 1012.4
20260506222748 48 0 0.0 0.0 0.00 0.00 0.00 80 1012.4
20260506214843 48 0 0.0 0.0 0.00 0.00 0.00 81 1012.3
20260506213842 48 0 0.0 0.0 0.00 0.00 0.00 80 1012.2
20260506211839 48 0 0.0 0.0 0.00 0.00 0.00 81 1012.3
20260506210836 48 0 0.0 0.0 0.00 0.00 0.00 81 1012.2
20260506203832 48 0 0.0 0.0 0.00 0.00 0.00 80 1012.0
20260506202830 48 0 0.0 0.0 0.00 0.00 0.00 80 1011.9
20260506201828 48 0 0.0 0.0 0.00 0.00 0.00 80 1011.8
20260506194823 48 0 0.0 0.0 0.00 0.00 0.00 80 1011.5
20260506193821 48 0 0.0 0.0 0.00 0.00 0.00 80 1011.4
20260506192820 48 0 0.0 0.0 0.00 0.00 0.00 80 1011.4
20260506191818 48 0 0.0 0.0 0.00 0.00 0.00 80 1011.4
20260506185816 48 0 0.0 0.0 0.00 0.00 0.00 79 1011.1
20260506184813 49 0 0.0 0.0 0.00 0.00 0.00 78 1011.0
20260506180808 50 0 0.0 0.0 0.00 0.00 0.00 76 1010.4
20260506174805 50 0 0.0 0.0 0.00 0.00 0.00 76 1010.0
20260506172801 50 0 0.0 0.0 0.00 0.00 0.00 79 1009.7
20260506170758 50 0 0.0 0.0 0.00 0.00 0.00 80 1009.7
20260506165756 50 0 0.0 0.0 0.00 0.00 0.00 79 1009.3
20260506164754 50 0 0.0 0.0 0.00 0.00 0.00 80 1009.4
20260506163752 49 0 0.0 0.0 0.00 0.00 0.00 78 1009.7
20260506161749 51 0 0.0 0.0 0.00 0.00 0.00 70 1009.3
20260506160747 52 0 0.0 0.0 0.00 0.00 0.00 70 1009.0
20260506155845 52 0 0.0 0.0 0.00 0.00 0.00 71 1009.1
20260506153843 52 0 0.0 0.0 0.00 0.00 0.00 71 1008.5
20260506152842 52 0 0.0 0.0 0.00 0.00 0.00 73 1008.2
20260506150838 52 0 0.0 0.0 0.00 0.00 0.00 73 1008.0
20260506145837 54 0 0.0 0.0 0.00 0.00 0.00 69 1007.6
20260506144835 59 0 0.0 0.0 0.00 0.00 0.00 67 1006.4
20260506142832 60 0 0.0 0.0 0.00 0.00 0.00 67 1005.5
20260506140828 61 0 0.0 0.0 0.00 0.00 0.00 65 1005.4
20260506131822 55 0 0.0 0.0 0.00 0.00 0.00 80 1007.2
20260506130820 56 0 0.0 0.0 0.00 0.00 0.00 75 1007.0
20260506124817 58 0 0.0 0.0 0.00 0.00 0.00 77 1006.4
20260506123815 57 0 0.0 0.0 0.00 0.00 0.00 79 1006.0
20260506122813 58 0 0.0 0.0 0.00 0.00 0.00 73 1005.7
20260506121811 60 0 0.0 0.0 0.00 0.00 0.00 65 1005.0
20260506115807 63 0 0.0 0.0 0.00 0.00 0.00 57 1004.3
20260506114805 65 0 0.0 0.0 0.00 0.00 0.00 54 1004.1
20260506113803 67 0 0.0 0.0 0.00 0.00 0.00 50 1003.7
20260506105748 67 0 0.0 0.0 0.00 0.00 0.00 49 1004.2
20260506104747 69 0 0.0 0.0 0.00 0.00 0.00 48 1003.8
20260506103845 72 0 0.0 0.0 0.00 0.00 0.00 44 1003.3
20260506102843 75 0 0.0 0.0 0.00 0.00 0.00 43 1002.9
20260506101842 79 0 0.0 0.0 0.00 0.00 0.00 38 1002.6
20260506093836 74 0 0.0 0.0 0.00 0.00 0.00 44 1003.9
20260506092834 66 0 0.0 0.0 0.00 0.00 0.00 52 1005.0
20260506091832 65 0 0.0 0.0 0.00 0.00 0.00 54 1005.3
20260506090830 64 0 0.0 0.0 0.00 0.00 0.00 56 1005.5
20260506085829 63 0 0.0 0.0 0.00 0.00 0.00 58 1005.4
20260506083825 64 0 0.0 0.0 0.00 0.00 0.00 56 1005.6
20260506082823 62 0 0.0 0.0 0.00 0.00 0.00 59 1005.8
20260506072814 57 0 0.0 0.0 0.00 0.00 0.00 71 1006.5
20260506071812 55 0 0.0 0.0 0.00 0.00 0.00 71 1006.9
20260506070810 56 0 0.0 0.0 0.00 0.00 0.00 70 1006.8
20260506060759 52 0 0.0 0.0 0.00 0.00 0.00 76 1007.8
20260506050750 48 0 0.0 0.0 0.00 0.00 0.00 82 1008.5
20260506044747 48 0 0.0 0.0 0.00 0.00 0.00 84 1009.0
20260506043845 47 0 0.0 0.0 0.00 0.00 0.00 85 1009.1
20260506042843 47 0 0.0 0.0 0.00 0.00 0.00 86 1009.1
20260506041841 47 0 0.0 0.0 0.00 0.00 0.00 85 1009.1
20260506040839 47 0 0.0 0.0 0.00 0.00 0.00 85 1009.2
20260506033835 47 0 0.0 0.0 0.00 0.00 0.00 86 1009.4
20260506030830 48 0 0.0 0.0 0.00 0.00 0.00 84 1009.6
20260506025829 48 0 0.0 0.0 0.00 0.00 0.00 84 1009.8
20260506023825 47 0 0.0 0.0 0.00 0.00 0.00 84 1010.0
20260506022824 47 0 0.0 0.0 0.00 0.00 0.00 85 1010.0
20260506015820 47 0 0.0 0.0 0.00 0.00 0.00 84 1010.4
20260506014817 47 0 0.0 0.0 0.00 0.00 0.00 85 1010.3
20260506013815 47 0 0.0 0.0 0.00 0.00 0.00 85 1010.3
20260506012814 47 0 0.0 0.0 0.00 0.00 0.00 85 1010.5
20260506010810 47 0 0.0 0.0 0.00 0.00 0.00 84 1010.4
20260506005808 46 0 0.0 0.0 0.00 0.00 0.00 86 1010.7